Tracking 18843 objects as of 21-November-2017
HD Live streaming from Space Station
objects crossing your sky now

ARIANE 5 R/B

Track ARIANE 5 R/B now!


NORAD ID: 39218
Int'l Code: 2013-038D
Perigee: 213.1 km
Apogee: 32,587.4 km
Inclination: 3.0 °
Period: 570.0 minutes
Semi major axis: 22771 km
RCS: Unknown
Launch date: July 25, 2013
Source: (TBD)
Launch site: FRENCH GUIANA (FRGUI)

Note: This is a ROCKET BODY
aabbcc
Your satellite tracking list
Your tracking list is empty




NASA's NSSDC Master Catalog

Two Line Element Set (TLE):
1 39218U 13038D   17324.06099179 +.00015163 +00000-0 +13064-2 0  9998
2 39218 003.0253 087.9113 7108610 136.0134 309.8904 02.52651911037980
Source of the keplerian elements: AFSPC